THORAD AGENA D DEB, 4737

Orbit data source: Space-Track

THORAD AGENA D DEB, 4737 is space debris in SSO originally from a launch on Wed, 08 Apr 1970 UTC launched from the Air Force Western Test Range (AFWTR). Debris objects in space refer to the collection of defunct objects orbiting the Earth. Examples of debris include non-operational satellites, rocket bodies, and fragments generated from explosions, collisions, or faulty payload assembly.

Loading next visibility...
Identifier
4737, 1970-025CL
Orbit
SSO
Country
Flag of USUS
Related business
Manufacturer
Unknown
Mission
Spacecraft
Bus & Motor
Unknown
Mass
Unknown
Launch date (UTC)
1970-04-08 (56 years ago)
Launch vehicle
Unknown
Launch site
Air Force Western Test Range (AFWTR)
Object type
Payload
Rocket body
Debris
Shape & HBR
Unknown shape, 0.2 m
Radar Cross Section
Small (<0.1 m²)

Expand to show TLE details & history
Last TLE update: 13 hours ago

TLE from 13 hours ago
0 THORAD AGENA D DEB
1  4737U 70025CL  25299.89851058  .00005931  00000-0  22900-2 0  9999
2  4737  99.0411 275.3052 0028901  39.8888 320.4410 14.30335351814224
Epoch: 2025-10-26T21:33Z
TLE epoch observation values (Epoch: 2025-10-26T21:33:51.314Z)
Latitude
0.00002°
Longitude
-83.66671°
Altitude
777.576 km
Speed
7.473 km/s
True Right ascension
18h 21m 13s
True Declination
0° 00' 00"
Sunlit
Object was in daylight at epoch
Visualization orbit readout
Latitude
Unknown
Longitude
Unknown
Altitude
Unknown
Speed
Unknown
Apparent Right ascension
Unknown
Apparent Declination
Unknown
Sunlit
N/A
Visualization observer readout
Local Sidereal Time
06:10:15
Azimuth
Unknown
Elevation
Unknown
Doppler factor
Unknown
Orbital elements
Apogee altitude
808.481 km
Perigee altitude
767.061 km
Semi-major axis
7,165.908 km
Eccentricity
0.00289
Inclination
99.0411°
RAAN
275.3052°
Arg. of periapsis
39.8888°
True anomaly
320.22949°
Mean anomaly
320.441°
Eccentric anomaly
320.3353°
Mean motion
3.57797 °/min
Orbital period
100.62 mins
BSTAR
0.00229
Loading maneuver chart data...
Computing Atmospheric mass density...

Documentation

Showing up to 5 results
|